Regional Weather Roundup
Issued by NWS

Home | Current Version | Previous Version | Graphics & Text | Print | Product List | Glossary Off
Versions: 1 2 3 4 5 6 7 8 9 10 11 12 13 14 15 16 17 18 19 20 21 22 23 24 25 26 27 28 29 30 31 32 33 34 35 36 37 38 39 40 41 42 43 44 45 46 47 48 49 50

932
ASUS43 KFSD 231310
RWRSD

WEATHER ROUNDUP FOR SOUTH DAKOTA
NATIONAL WEATHER SERVICE SIOUX FALLS SD
700 AM CST TUE JAN 23 2018

NOTE: "FAIR" INDICATES FEW OR NO CLOUDS BELOW 12,000 FEET WITH NO
SIGNIFICANT WEATHER AND/OR OBSTRUCTIONS TO VISIBILITY.


SDZ001>005-009-010-012>017-231400-
NORTHWEST AND NORTH CENTRAL SOUTH DAKOTA

CITY           SKY/WX    TMP DP  RH WIND       PRES   REMARKS
BUFFALO          N/A     29  22  75 W14       29.99R WCI  18
FAITH            N/A     29  25  85 W14       30.04S WCI  18
MOBRIDGE       FOG       17  14  88 S3        30.02R VSB 1/4
$$

SDZ012>016-024>037-041>051-057-063-072>074-231400-
SOUTHWEST AND SOUTH CENTRAL SOUTH DAKOTA

CITY           SKY/WX    TMP DP  RH WIND       PRES   REMARKS
RAPID CTY ARPT CLOUDY    31  24  75 CALM      30.08R
PIERRE         CLOUDY    19  18  95 SW5       30.06S WCI  12
CUSTER         PTCLDY    25  15  66 NW8G18    30.04R WCI  16
ELLSWORTH AFB  CLOUDY    32  24  72 SW6       30.07R WCI  26
PHILIP         CLOUDY    29  26  89 W7        30.08R WCI  22
PINE RIDGE     PTCLDY    20  17  88 W3        30.12R
WINNER         FAIR      20  16  84 W9        30.08R WCI   9
$$

SDZ004>011-016>023-039-040-231400-
NORTHEAST SOUTH DAKOTA

CITY           SKY/WX    TMP DP  RH WIND       PRES   REMARKS
ABERDEEN       CLOUDY    19  17  92 W7        30.07S WCI  10
WATERTOWN      CLOUDY    18  18 100 N8        30.02S FOG     WCI   8
BROOKINGS      CLOUDY    19  17  92 NW13      30.04R WCI   6
SISSETON         N/A     21  18  88 NW7       30.05S WCI  12
$$

SDZ017-020-022-023-036>040-048>070-231400-
SOUTHEAST SOUTH DAKOTA

CITY           SKY/WX    TMP DP  RH WIND       PRES   REMARKS
SIOUX FALLS    CLOUDY    22  21  96 NW13      30.06R WCI  10
HURON          CLOUDY    20  19  96 NW6       30.09R WCI  12
CHAMBERLAIN    CLOUDY    22  22 100 W5        30.08S FOG     WCI  15
MITCHELL       CLOUDY    21  19  92 NW10      30.10R WCI  10
YANKTON        FLURRIES  20  19  96 W10       30.10R WCI   9
$$

ABBREVIATIONS USED IN REMARKS
   TC - TEMPERATURE IN CELSIUS
  WCI - WIND CHILL INDEX
   HX - HEAT INDEX
  VSB - VISIBILITY





USA.gov is the U.S. government's official web portal to all federal, state and local government web resources and services.